This is the latest recevied weather packets stored in our database for station/object K6CEG. If no packets are shown the sender has not sent any weather packets the latest 10 day(s).
| Time | Temp. | Humidity | Pressure | Rain* | Wind** | Luminosity | Snow |
|---|---|---|---|---|---|---|---|
| 1788589010 | 20° C | 68% | 1015.4 hPa | 0 mm | - | 0 W/m² | - |
| 1788588710 | 20° C | 68% | 1015.5 hPa | 0 mm | - | 0 W/m² | - |
| 1788588405 | 20° C | 68% | 1015.3 hPa | 0 mm | - | 0 W/m² | - |
| 1788588102 | 20° C | 69% | 1015.5 hPa | 0 mm | - | 0 W/m² | - |
| 1788587800 | 20° C | 68% | 1015.4 hPa | 0 mm | - | 0 W/m² | - |
| 1788587496 | 20° C | 68% | 1015.3 hPa | 0 mm | - | 0 W/m² | - |
| 1788587191 | 20° C | 68% | 1015.2 hPa | 0 mm | - | 0 W/m² | - |
| 1788586887 | 20.56° C | 67% | 1015.4 hPa | 0 mm | - | 0 W/m² | - |
| 1788586586 | 20.56° C | 67% | 1015.5 hPa | 0 mm | - | 0 W/m² | - |
| 1788586282 | 21.11° C | 66% | 1015.2 hPa | 0 mm | - | 0 W/m² | - |
| 1788585981 | 20.56° C | 66% | 1015.3 hPa | 0 mm | - | 0 W/m² | - |
| 1788585676 | 20.56° C | 68% | 1015.3 hPa | 0 mm | - | 0 W/m² | - |
| 1788585371 | 20° C | 68% | 1015.3 hPa | 0 mm | - | 0 W/m² | - |
| 1788585068 | 20° C | 68% | 1015.3 hPa | 0 mm | - | 0 W/m² | - |
| 1788584764 | 20.56° C | 67% | 1015.4 hPa | 0 mm | - | 0 W/m² | - |
| 1788584461 | 20.56° C | 66% | 1015.2 hPa | 0 mm | - | 0 W/m² | - |
| 1788584160 | 21.11° C | 65% | 1015.4 hPa | 0 mm | - | 0 W/m² | - |
| 1788583856 | 21.11° C | 65% | 1015.3 hPa | 0 mm | - | 0 W/m² | - |
| 1788583555 | 21.67° C | 65% | 1015.2 hPa | 0 mm | - | 0 W/m² | - |
| 1788583250 | 21.67° C | 65% | 1015.3 hPa | 0 mm | - | 0 W/m² | - |
| 1788582949 | 21.11° C | 66% | 1015.1 hPa | 0 mm | - | 0 W/m² | - |
| 1788582645 | 21.11° C | 66% | 1014.9 hPa | 0 mm | - | 0 W/m² | - |
| 1788582343 | 21.67° C | 66% | 1014.9 hPa | 0 mm | - | 0 W/m² | - |
| 1788582039 | 21.11° C | 66% | 1015.1 hPa | 0 mm | - | 0 W/m² | - |
| 1788581734 | 21.11° C | 66% | 1015.3 hPa | 0 mm | - | 0 W/m² | - |
* Rain latest hour (hover to see other rain measurements)
** Current wind speed in m/s (hover to see current wind gust speed)